Regional Weather Roundup
Issued by NWS Green Bay, WI

Home | Current Version | Previous Version | Graphics & Text | Print | Product List | Glossary Off
Versions: 1 2 3 4 5 6 7 8 9 10 11 12 13 14 15 16 17 18 19 20 21 22 23 24 25 26 27 28 29 30 31 32 33 34 35 36 37 38 39 40 41 42 43 44 45 46 47 48 49 50

000
ASUS43 KGRB 172210
RWRGRB

NORTH-CENTRAL AND NORTHEAST WISCONSIN REGIONAL WEATHER ROUNDUP
NATIONAL WEATHER SERVICE GREEN BAY WI
500 PM CDT WED SEP 17 2014

WIZ005-009-010>012-018-019-172300-
NORTH CENTRAL WISCONSIN

CITY           SKY/WX    TMP DP  RH WIND       PRES   REMARKS
IRONWOOD       SUNNY     52  46  82 N8        30.00R
MANITOWISH WTR CLOUDY    57  48  71 N12       29.98R
ARBOR VITAE    MOSUNNY   63  50  63 NE12G17   29.97R
EAGLE RIVER    MOSUNNY   61  47  60 N10G18    29.97R
LAND O LAKES   CLOUDY    58  47  67 N12       30.00R
RHINELANDER    MOSUNNY   65  47  52 NW3       29.96S
PHILLIPS       MOSUNNY   69  47  46 W6G16     29.95S
ANTIGO         SUNNY     67  49  51 NW7       29.95F
TOMAHAWK       SUNNY     68  46  45 CALM      29.96S
MERRILL        PTSUNNY   69  50  50 W6        29.95S
$$

WIZ013-073-172300-
NORTHEAST WISCONSIN

CITY           SKY/WX    TMP DP  RH WIND       PRES   REMARKS
IRON MOUNTAIN  CLOUDY    60  49  66 N9        29.95R
MARINETTE      MOSUNNY   70  46  43 CALM      29.91F
OCONTO         MOSUNNY   70  48  45 W5        29.92S
$$

WIZ017-030-035>037-045-172300-
CENTRAL WISCONSIN

CITY           SKY/WX    TMP DP  RH WIND       PRES   REMARKS
MEDFORD        MOSUNNY   67  49  53 W6        29.96S
WAUSAU         SUNNY     66  50  56 W3        29.95S
MOSINEE        PTSUNNY   70  52  52 W9        29.97S
MARSHFIELD     SUNNY     69  51  52 W6        29.96S
WISC RAPIDS    MOSUNNY   68  49  50 W5        29.98S
STEVENS POINT  SUNNY     67  47  47 W6        29.97S
WAUPACA        SUNNY     72  47  40 W6        29.96S
SHAWANO        SUNNY     71  50  48 CALM      29.94S
CLINTONVILLE   CLOUDY    70  46  43 W8        29.94S
$$

WIZ038-039-048-051-172300-
FOX VALLEY

CITY           SKY/WX    TMP DP  RH WIND       PRES   REMARKS
NWS GREEN BAY  MOSUNNY   68  52  56 CALM      29.95R
APPLETON       PTSUNNY   70  46  43 W8        29.96S
OSHKOSH        MOSUNNY   66  50  56 SW5       29.96S
FOND DU LAC    PTSUNNY   69  49  48 SW7       29.97S
$$

WIZ022-050-052-172300-
EAST CENTRAL WISCONSIN

CITY           SKY/WX    TMP DP  RH WIND       PRES   REMARKS
STURGEON BAY   SUNNY     68  48  49 W8        29.94F
MANITOWOC      PTSUNNY   68  50  52 W9        29.96S
SHEBOYGAN      MOSUNNY   68  48  48 W6        29.97S
$$

LMZ563-521-522-541>543-172300-
LAKESHORE

STATION/POSITION TIME  TEMP    WIND        PRES    VSBY  WAVE
                       AIR SEA DIR/SP/G                  HT/PER
                 (UTC) (F)     (DEG/KT/KT) (MB)    (MI)  (FT/S)
SHEBOYGAN LKSHOR 2200   61 49  180/ 16/ 17 1015.2F
KEWAUNEE LKSHORE 2200   59     170/  4/  6 1013.2S
TWO RIVERS CG    2100   56 61              1015.1      6   2
NORTHPORT PIER   2200   63     150/  5/  8 1013.5S
N MID LAKE BUOY  2200   59 58  210/ 14/ 16 1013.9R         2/ 4
S GREEN BAY BUOY 2200   63     VRB  6/  8  1014.5F
SISTER BAY LKSHO 2100          280/  5/  6   N/A
STURGEON BAY CG  2100   56 55  180/ 11     1014.4      6   2
CHAMBERS ISLAND  2200   66     160/  4/ 10 1013.5S
MENOMINEE LKSHOR 2200   64     160/  7/ 10 1013.8S
$$


USA.gov is the U.S. government's official web portal to all federal, state and local government web resources and services.